Location: Nantong Television Tower
(32.0188°N, 120.8512°E)
Time: 09:39:26
(UTC+08:00)

Daily predictions for brighter satellites

Satellite Brightness Start Highest point End
(mag) Time Altitude Azimuth Time Altitude Azimuth Time Altitude Azimuth
Cosmos 2263 Rocket 2.5 19:21:12 10° SSW 19:26:52 79° WNW 19:32:34 10° NNE
Aurora 2 Rocket 4.3 19:23:27 10° SW 19:28:16 30° SSE 19:34:47 10° E
Cosmos 1953 2.8 19:26:28 10° N 19:30:18 43° E 19:34:06 10° SSE
Hubble Space Telescope 2.0 19:26:43 10° WSW 19:30:18 28° SSW 19:33:52 10° SE
Cosmos 2056 Rocket 3.5 19:25:53 10° NNW 19:31:04 76° ENE 19:36:18 10° SSE
Cosmos 2180 Rocket 4.5 19:26:08 10° S 19:32:19 78° E 19:38:28 10° N
Centaur D-1A AC-35 3.9 19:27:32 10° SW 19:34:27 27° S 19:37:38 10° ESE
Cosmos 1624 Rocket 4.1 19:30:18 10° NNW 19:35:39 90° ENE 19:40:57 10° SSE
ERS-2 3.4 19:34:10 10° SE 19:37:11 24° ENE 19:40:12 10° NNE
Resurs 1-3 4.1 19:33:55 10° SE 19:38:03 43° ENE 19:42:11 10° N
Palapa 6 Rocket 4.5 19:35:04 10° SW 19:39:22 29° S 19:44:29 10° ESE
Cosmos 1603 3.9 19:33:49 10° NNW 19:39:33 79° WSW 19:45:16 10° SSE
Cosmos 1602 Rocket 3.6 19:36:27 10° S 19:40:54 89° WSW 19:45:24 10° N
SJ-6B 3.3 19:37:55 10° S 19:41:45 61° W 19:45:40 10° NNW
Cosmos 1655 Rocket 4.0 19:36:52 10° N 19:43:08 79° E 19:49:20 10° S
USA 215 3.9 19:37:58 10° ESE 19:44:05 44° NE 19:50:14 10° NNW
H-2A R/B 3.9 19:44:56 10° ESE 19:48:06 16° ENE 19:51:17 10° NNE
Cosmos 1812 Rocket 3.9 19:44:28 10° N 19:48:40 48° E 19:52:54 10° SSE
Cosmos 1400 Rocket 2.8 19:47:07 10° S 19:51:09 76° E 19:55:09 10° NNE
Cosmos 2266 Rocket 4.4 19:46:23 10° N 19:52:30 46° E 19:58:29 10° SSE
CZ-3 Stage 3 2.8 19:50:42 10° WSW 19:53:30 68° SSE 20:03:35 10° E
Cosmos 1758 Rocket 4.2 19:53:42 10° SSE 19:57:47 36° E 20:01:51 10° NNE
Resurs 01 Rocket 1.6 19:57:41 10° SSE 20:02:05 80° ENE 20:06:31 10° N
OAO 3 Rocket 3.6 19:57:17 10° W 20:02:14 66° N 20:07:08 10° ENE
SL-8 R/B 3.8 19:59:42 10° SW 20:04:32 84° NW 20:09:22 10° NE
Cosmos 1470 3.1 20:00:58 10° NNW 20:04:50 68° W 20:08:43 10° S
Thor Agena Rocket 4.2 20:01:04 10° N 20:06:04 59° WNW 20:11:00 10° SSW
Cosmos 1238 Rocket 3.2 20:07:35 21° ESE 20:08:34 25° E 20:11:03 10° NNE
Cosmos 1607 4.0 20:03:12 10° NNW 20:09:35 86° ENE 20:14:55 15° SSE
Lacrosse 5 2.6 20:05:39 10° SW 20:10:38 57° NW 20:15:37 10° NNE
SEDSat Delta rocket 4.3 20:12:45 10° SSW 20:17:17 27° SSE 20:19:15 21° ESE
Cosmos 2278 Rocket 3.8 20:18:53 14° E 20:18:53 14° E 20:21:41 10° ENE
Cosmos 1943 3.7 20:15:21 10° NNW 20:20:54 59° WSW 20:26:17 11° S
Cosmos 1825 Rocket 3.6 20:18:22 10° S 20:22:50 89° NW 20:27:18 10° N
Iridium 4 Rocket 3.6 20:20:36 10° S 20:26:21 79° E 20:31:45 10° N
ARGOS 3.5 20:23:01 21° SE 20:26:26 48° ENE 20:31:38 10° N
ERS-1 Rocket 4.1 20:26:46 21° ESE 20:28:52 28° ENE 20:33:05 10° NNE
Timation 1 Rocket 4.3 20:28:16 10° S 20:34:09 66° ESE 20:40:03 10° NNE
MetOp-A 4.3 20:32:56 24° SE 20:36:01 57° ENE 20:41:16 10° N
ATLAS 3B R/B 4.3 20:32:11 10° N 20:36:45 19° NE 20:40:40 12° E
Cosmos 1932 4.4 20:31:37 10° NNW 20:37:50 78° ENE 20:41:27 26° SE
Cosmos 1844 Rocket 2.6 20:33:37 10° SSW 20:39:17 86° ESE 20:44:58 10° NNE
Cosmos 1844 3.7 20:34:56 10° S 20:40:30 65° ESE 20:46:12 10° NNE
Meteor 1-24 Rocket 4.0 20:45:23 10° S 20:51:23 78° W 20:57:26 10° N
Cosmos 1674 2.5 20:54:38 53° SSE 20:55:22 73° E 20:59:12 10° N
Cosmos 1417 Rocket 4.5 20:54:42 26° S 20:58:27 68° E 21:04:43 10° NNE
ATLAS 2AS CENTAUR R/B 3.5 20:51:49 10° SW 20:59:24 63° WNW 21:07:26 10° NNE
ATLAS 5 CENTAUR R/B 4.0 21:02:40 10° ENE 21:02:40 10° ENE 21:02:44 10° ENE
Terra 3.4 21:08:10 20° ENE 21:08:19 20° ENE 21:11:48 10° NNE
Iridium 18 4.5 21:10:38 69° NW 21:10:38 69° NW 21:13:54 10° N
Cosmos-2242 3.1 21:07:48 10° N 21:12:12 75° W 21:13:14 51° SSW
Cosmos 2084 3.3 21:11:25 10° NNW 21:15:06 64° NE 21:15:06 64° NE
Cosmos 724 4.5 21:10:26 10° NNW 21:16:27 63° ENE 21:18:10 45° ESE
Cosmos 1726 2.8 21:14:30 10° N 21:17:28 45° NE 21:17:28 45° NE
Cosmos 1745 Rocket 4.2 21:13:39 10° N 21:19:46 51° E 21:21:04 44° ESE
Aurora 2 Rocket 4.1 21:15:11 10° WSW 21:21:44 51° S 21:24:24 39° SE
Cosmos 1842 Rocket 4.1 21:20:20 10° N 21:24:01 44° ENE 21:24:01 44° ENE
Helios 1A 3.2 21:25:47 58° NE 21:25:47 58° NE 21:29:37 10° N
SL-08 R/B 4.4 21:19:21 10° N 21:25:32 75° E 21:27:11 50° SSE
SPOT 1/Viking Rocket 3.5 21:26:09 60° ESE 21:26:46 66° ENE 21:31:52 10° N
H-2A R/B 2.7 21:25:00 34° SSW 21:26:58 51° W 21:32:12 10° NNW
USA 215 3.9 21:24:32 32° S 21:26:59 44° SW 21:33:11 10° NW
Cosmos 1110 Rocket 3.8 21:22:01 10° NNW 21:27:12 81° ENE 21:27:53 67° SE
CZ-2C R/B 4.0 21:23:01 10° NE 21:26:12 24° ENE 21:26:12 24° ENE
OAO 3 Copernicus 4.2 21:23:24 10° WNW 21:28:26 69° SSW 21:28:34 68° S
Meteor 2-1 Rocket 4.2 21:23:18 10° N 21:29:15 88° W 21:30:48 52° S
Meteor 2-13 Rocket 4.5 21:27:33 10° N 21:33:33 59° E 21:34:25 54° ESE
SL-14 R/B 4.3 21:34:52 38° NNE 21:34:52 38° NNE 21:37:25 10° NNE
NOSS 3-4 (A) 3.3 21:34:16 37° SSW 21:36:53 82° ESE 21:43:11 10° NNE
NOSS 3-4 (C) 3.3 21:34:30 39° SSW 21:36:58 81° ESE 21:43:16 10° NNE
H-2A R/B (2) 4.0 21:37:24 39° SSE 21:38:24 40° SE 22:14:34 10° ENE
H-2A R/B (2) 4.0 21:37:23 39° SSE 21:38:24 40° SE 22:14:34 10° ENE
H-2A R/B (2) 4.0 21:37:23 39° SSE 21:38:25 40° SE 22:14:34 10° ENE
H-2A R/B (2) 4.0 21:37:22 39° SSE 21:38:25 40° SE 22:14:34 10° ENE
H-2A R/B (2) 4.0 21:37:23 39° SSE 21:38:25 40° SE 22:14:35 10° ENE
H-2A R/B (2) 4.0 21:37:24 39° SSE 21:38:25 40° SE 22:14:34 10° ENE
Helios 1B rocket 2.8 21:34:20 10° NNE 21:37:41 58° NNE 21:37:41 58° NNE
S3M 4.2 21:38:03 35° SSW 21:40:53 69° W 21:47:15 10° N
Cosmos 1346 Rocket 4.3 21:37:36 10° NNW 21:41:07 29° W 21:41:34 29° WSW
Cosmos 1331 Rocket 3.8 21:35:56 10° NNW 21:41:09 84° WSW 21:41:31 77° S
SPOT 5 2.9 21:43:15 74° SSW 21:43:37 79° WSW 21:48:50 10° NNW
OAO 3 Rocket 3.4 21:41:08 10° WNW 21:46:03 67° N 21:46:18 66° NNE
Cosmos 1709 Rocket 4.4 21:47:17 10° N 21:53:12 45° E 21:53:12 45° E
Meteor 2-10 4.5 21:56:16 10° NNW 22:01:37 57° W 22:02:11 54° WSW
Cosmos 2221 3.6 21:57:24 10° N 22:00:16 39° NNE 22:00:16 39° NNE
Cosmos 2278 Rocket 2.6 22:00:38 43° WSW 22:02:16 59° WNW 22:07:54 10° NNE
ERS-1 Rocket 4.5 22:06:46 25° WSW 22:07:31 26° W 22:11:43 10° NW
Cosmos 1375 Rocket 4.4 22:01:42 10° NNW 22:08:16 76° ENE 22:08:41 73° E
Cosmos 1302 Rocket 4.1 22:03:35 10° NNW 22:08:21 73° NNW 22:08:21 73° NNW
Cosmos 1626 4.4 22:16:14 23° N 22:16:14 23° N 22:17:46 10° N
CZ-2C R/B 3.2 22:16:09 85° NNW 22:16:09 85° NNW 22:21:48 10° NNW
COSMOS 2406 3.9 22:15:32 10° NNW 22:20:52 46° W 22:20:52 46° W
Cosmos 2315 Rocket 3.9 22:20:56 79° WSW 22:21:10 81° W 22:27:32 10° N
ATLAS 3B R/B 2.5 22:21:27 10° NNW 22:27:54 72° WSW 22:27:54 72° WSW
USA 238 DEB 4.1 22:21:26 10° NW 22:28:23 54° WSW 22:28:50 53° SW
USA 238 4.0 22:21:32 10° NW 22:28:30 55° WSW 22:28:56 54° SW
NOSS 3-2 (A) 4.0 22:33:29 10° NNW 22:41:19 74° WSW 22:41:59 71° SSW
ATLAS 5 CENTAUR R/B 3.3 22:44:08 31° NW 22:44:08 31° NW 22:48:01 10° N
Cosmos 2297 4.1 22:45:39 59° NNW 22:45:39 59° NNW 22:50:24 10° NNE
Terra 3.5 22:47:03 28° WNW 22:47:03 28° WNW 22:50:03 10° NW
Cosmos 2082 Rocket 2.8 22:49:58 10° NNW 22:54:23 51° NNE 22:54:23 51° NNE
Cosmos 1833 Rocket 3.3 22:54:01 10° NNW 22:58:12 52° N 22:58:12 52° N
ATLAS 3B CENTAUR R/B 3.9 22:49:06 10° WSW 22:58:56 42° SW 22:58:56 42° SW
NOSS 3-2 (C) 4.1 22:58:20 10° NW 23:06:10 70° WSW 23:06:11 70° WSW
CZ-2C R/B 4.1 23:03:03 10° N 23:07:40 30° WNW 23:07:42 30° WNW
Mayak 1.2 23:04:49 10° NNE 23:05:59 18° NNE 23:05:59 18° NNE
Cosmos 1943 Rocket 4.3 23:17:11 16° ENE 23:17:11 16° ENE 23:18:39 10° NE
Nadezhda 1 Rocket 4.3 23:22:40 64° N 23:22:40 64° N 23:27:59 10° N
ADEOS Rocket 3.4 23:27:26 10° N 23:32:36 64° NNW 23:32:36 64° NNW
CENTAUR R/B 3.0 23:28:53 10° NNW 23:37:10 88° WSW 23:37:10 88° WSW
USA 234 3.5 23:42:26 10° NE 23:47:45 62° NE 23:47:45 62° NE
